Time,TemperatureF,DewpointF,PressureIn,WindDirection,WindDirectionDegrees,WindSpeedMPH,WindSpeedGustMPH,Humidity,HourlyPrecipIn,Conditions,Clouds,dailyrainin,SolarRadiationWatts/m^2,SoftwareType,DateUTC
2013-10-13 00:43:00,44.0,39.0,-100.00,WSW,241,1.0,5.0,82,-99.99,,,0.00,0.000000,,2013-10-13 05:43:00,
2013-10-13 00:52:00,44.0,39.0,-100.00,WSW,241,1.0,5.0,82,-99.99,,,0.00,0.000000,,2013-10-13 05:52:00,
2013-10-13 01:02:00,44.0,39.0,-100.00,WSW,241,1.0,5.0,82,-99.99,,,0.00,0.000000,,2013-10-13 06:02:00,
2013-10-13 01:42:00,46.0,39.0,-100.00,West,259,2.0,7.0,76,0.00,,,0.00,0.000000,,2013-10-13 06:42:00,
2013-10-13 01:52:00,46.0,39.0,-100.00,West,259,2.0,7.0,76,0.00,,,0.00,0.000000,,2013-10-13 06:52:00,
2013-10-13 02:02:00,46.0,39.0,-100.00,West,259,2.0,7.0,76,0.00,,,0.00,0.000000,,2013-10-13 07:02:00,
2013-10-13 02:42:00,45.0,39.0,-100.00,West,277,2.0,7.0,80,0.00,,,0.00,0.000000,,2013-10-13 07:42:00,
2013-10-13 02:52:00,45.0,39.0,-100.00,West,277,2.0,7.0,80,0.00,,,0.00,0.000000,,2013-10-13 07:52:00,
2013-10-13 03:02:00,45.0,39.0,-100.00,West,277,2.0,7.0,80,0.00,,,0.00,0.000000,,2013-10-13 08:02:00,
2013-10-13 03:42:00,42.0,38.0,-100.00,WNW,298,1.0,7.0,87,0.00,,,0.00,0.000000,,2013-10-13 08:42:00,
2013-10-13 03:52:00,42.0,38.0,-100.00,WNW,298,1.0,7.0,87,0.00,,,0.00,0.000000,,2013-10-13 08:52:00,
2013-10-13 04:02:00,42.0,38.0,-100.00,WNW,298,1.0,7.0,87,0.00,,,0.00,0.000000,,2013-10-13 09:02:00,
2013-10-13 04:43:00,41.0,39.0,-100.00,West,264,2.0,5.0,92,0.00,,,0.00,0.000000,,2013-10-13 09:43:00,
2013-10-13 04:53:00,41.0,39.0,-100.00,West,264,2.0,5.0,92,0.00,,,0.00,0.000000,,2013-10-13 09:53:00,
2013-10-13 05:03:00,41.0,39.0,-100.00,West,264,2.0,5.0,92,0.00,,,0.00,0.000000,,2013-10-13 10:03:00,
2013-10-13 05:43:00,38.0,37.0,-100.00,West,273,1.0,4.0,96,0.00,,,0.00,0.000000,,2013-10-13 10:43:00,
2013-10-13 05:53:00,38.0,37.0,-100.00,West,273,1.0,4.0,96,0.00,,,0.00,0.000000,,2013-10-13 10:53:00,
2013-10-13 06:03:00,38.0,37.0,-100.00,West,273,1.0,4.0,96,0.00,,,0.00,0.000000,,2013-10-13 11:03:00,
2013-10-13 08:42:00,40.0,40.0,-100.00,West,270,1.0,5.0,100,-99.99,,,0.00,52.000000,,2013-10-13 13:42:00,
2013-10-13 08:52:00,40.0,40.0,-100.00,West,270,1.0,5.0,100,-99.99,,,0.00,52.000000,,2013-10-13 13:52:00,
2013-10-13 09:02:00,40.0,40.0,-100.00,West,270,1.0,5.0,100,-99.99,,,0.00,52.000000,,2013-10-13 14:02:00,
2013-10-13 09:42:00,46.0,41.0,-100.00,NW,319,5.0,10.0,84,0.00,,,0.00,220.000000,,2013-10-13 14:42:00,
2013-10-13 09:52:00,46.0,41.0,-100.00,NW,319,5.0,10.0,84,0.00,,,0.00,220.000000,,2013-10-13 14:52:00,
2013-10-13 10:01:00,46.0,41.0,-100.00,NW,319,5.0,10.0,84,0.00,,,0.00,220.000000,,2013-10-13 15:01:00,
2013-10-13 10:43:00,50.0,41.0,-100.00,NW,322,6.0,13.0,71,0.00,,,0.00,372.000000,,2013-10-13 15:43:00,
2013-10-13 10:54:00,50.0,41.0,-100.00,NW,322,6.0,13.0,71,0.00,,,0.00,372.000000,,2013-10-13 15:54:00,
2013-10-13 11:03:00,50.0,41.0,-100.00,NW,322,6.0,13.0,71,0.00,,,0.00,372.000000,,2013-10-13 16:03:00,
2013-10-13 11:43:00,53.0,38.0,-100.00,NNW,340,9.0,17.0,56,0.00,,,0.00,508.000000,,2013-10-13 16:43:00,
2013-10-13 11:54:00,53.0,38.0,-100.00,NNW,340,9.0,17.0,56,0.00,,,0.00,508.000000,,2013-10-13 16:54:00,
2013-10-13 12:03:00,53.0,38.0,-100.00,NNW,340,9.0,17.0,56,0.00,,,0.00,508.000000,,2013-10-13 17:03:00,
2013-10-13 12:43:00,55.0,37.0,-100.00,NW,310,7.0,17.0,51,0.00,,,0.00,600.000000,,2013-10-13 17:43:00,
2013-10-13 12:52:00,55.0,37.0,-100.00,NW,310,7.0,17.0,51,0.00,,,0.00,600.000000,,2013-10-13 17:52:00,
2013-10-13 13:02:00,55.0,37.0,-100.00,NW,310,7.0,17.0,51,0.00,,,0.00,600.000000,,2013-10-13 18:02:00,
2013-10-13 13:42:00,58.0,36.0,-100.00,NNW,327,7.0,16.0,43,0.00,,,0.00,630.000000,,2013-10-13 18:42:00,
2013-10-13 13:52:00,58.0,36.0,-100.00,NNW,327,7.0,16.0,43,0.00,,,0.00,630.000000,,2013-10-13 18:52:00,
2013-10-13 14:02:00,58.0,36.0,-100.00,NNW,327,7.0,16.0,43,0.00,,,0.00,630.000000,,2013-10-13 19:02:00,
2013-10-13 14:42:00,59.0,34.0,-100.00,WNW,288,5.0,15.0,39,0.00,,,0.00,608.000000,,2013-10-13 19:42:00,
2013-10-13 14:53:00,59.0,34.0,-100.00,WNW,288,5.0,15.0,39,0.00,,,0.00,608.000000,,2013-10-13 19:53:00,
2013-10-13 15:02:00,59.0,34.0,-100.00,WNW,288,5.0,15.0,39,0.00,,,0.00,608.000000,,2013-10-13 20:02:00,
2013-10-13 15:43:00,60.0,32.0,-100.00,NNW,329,5.0,15.0,35,0.00,,,0.00,528.000000,,2013-10-13 20:43:00,
2013-10-13 15:52:00,60.0,32.0,-100.00,NNW,329,5.0,15.0,35,0.00,,,0.00,528.000000,,2013-10-13 20:52:00,
2013-10-13 16:02:00,60.0,32.0,-100.00,NNW,329,5.0,15.0,35,0.00,,,0.00,528.000000,,2013-10-13 21:02:00,
2013-10-13 16:44:00,60.0,32.0,-100.00,NNW,344,5.0,12.0,34,0.00,,,0.00,403.000000,,2013-10-13 21:44:00,
2013-10-13 16:55:00,60.0,32.0,-100.00,NNW,344,5.0,12.0,34,0.00,,,0.00,403.000000,,2013-10-13 21:55:00,
2013-10-13 17:03:00,60.0,32.0,-100.00,NNW,344,5.0,12.0,34,0.00,,,0.00,403.000000,,2013-10-13 22:03:00,
2013-10-13 17:43:00,59.0,33.0,-100.00,NNW,339,4.0,11.0,37,0.00,,,0.00,240.000000,,2013-10-13 22:43:00,
2013-10-13 17:53:00,59.0,33.0,-100.00,NNW,339,4.0,11.0,37,0.00,,,0.00,240.000000,,2013-10-13 22:53:00,
2013-10-13 18:03:00,59.0,33.0,-100.00,NNW,339,4.0,11.0,37,0.00,,,0.00,240.000000,,2013-10-13 23:03:00,
2013-10-13 18:42:00,53.0,36.0,-100.00,NNW,342,0.0,8.0,53,0.00,,,0.00,73.000000,,2013-10-13 23:42:00,
2013-10-13 18:52:00,53.0,36.0,-100.00,NNW,342,0.0,8.0,53,0.00,,,0.00,73.000000,,2013-10-13 23:52:00,
2013-10-13 19:01:00,53.0,36.0,-100.00,NNW,342,0.0,8.0,53,0.00,,,0.00,73.000000,,2013-10-14 00:01:00,